If you wish to contribute or participate in the discussions about articles you are invited to join SKYbrary as a registered user

 Actions

Arctic Village Airport

From SKYbrary Wiki

PARC
Airport
ICAO: PARC – IATA: ARC
Summary
Name Arctic Village Airport
Region North America
Territory Alaska US.gif
Location , Alaska
Serving Arctic Village
Elevation 637.642 m
2,092 ft
2,092 ft637.642 m
Type medium airport
Coordinates 68° 6' 52.92" N, 145° 34' 44.40" W
Runways
Designator Length Width Surface ROPS
2/20 1372 m4,501.312 ft
23 m75.459 ft
GVL /


METAR
Observation PARC 102156Z AUTO 19010KT 10SM FEW055 BKN070 BKN090 14/06 A2988 RMK AO2 SLP143 T01440056
Station Arctic Village, Arctic Village Airport
Date/Time 10 June 2019 21:56:00
Wind direction 190°
Wind speed 10 kts
Lowest cloud amount few clouds
Temperature 14.4°C
Dew point 5.6°C
Humidity 55%
QNH hPa
Weather condition n/a